SCP
-0 -0 0 0 1 0 0 0 -0 -0 -0 -0 -0 -0 -0 -0 -0 -0 -0 -0 -0 -0 -0 -0 -0 -0 -0 -0 -0 -0 -0 0 0 0 0 0 0 0 0 0 0 0 0
-1 -0 0 0 0 0 0 0 -0 -0 -0 -0 -0 -0 -0 -0 -0 -0 -0 -0 -0 -0 -0 -0 -0 -0 -0 -0 -0 -0 0 0 0 0 0 0 0 0 0 0 0 0 0
-1 -0 0 0 0 0 0 0 0 -0 -0 -0 -0 -0 -0 -0 -0 -0 -0 -0 -0 -0 -0 -0 -0 -0 -0 -0 -0 -0 0 0 0 0 0 0 0 0 0 0 0 0 0
-0 -0 -0 0 0 0 0 0 0 -0 -0 -0 -0 -0 -0 -0 -0 -0 -0 -0 -0 -0 -0 -0 -0 -0 -0 -0 -0 0 0 0 0 0 0 0 0 0 0 0 0 0 0
-0 0 -0 0 0 0 0 0 0 0 -0 -0 -0 -0 -0 -0 -0 -0 -0 -0 -0 -0 -0 -0 -0 -0 -0 -0 0 0 0 0 -0 0 0 0 0 0 0 0 0 0 0
-0 -0 -0 -0 0 0 0 0 0 0 0 -0 -0 -0 0 0 0 0 -0 -0 -0 -0 -0 -0 -0 0 0 0 0 0 0 -0 -0 0 0 0 0 0 0 0 0 0 0
1 1 0 0 0 0 0 0 0 0 -0 -0 -0 0 0 0 0 0 0 -0 0 -0 -0 -0 0 0 0 0 0 0 0 -0 0 0 0 0 0 0 0 0 0 0 0
1 1 1 1 0 0 0 0 0 0 0 -0 0 -0 0 0 0 0 0 0 0 0 0 0 0 0 0 0 0 0 -0 -0 -0 0 0 0 0 0 0 0 0 0 0
1 1 1 1 1 0 0 0 0 0 0 0 0 0 0 0 0 0 0 0 0 0 0 0 0 0 0 0 0 0 -0 -0 -0 0 0 0 0 0 0 0 0 0 0
1 1 1 1 1 1 1 0 0 0 0 0 0 0 0 0 0 0 0 0 0 0 0 0 0 0 0 0 0 0 -0 -0 -0 0 0 0 0 0 0 0 0 0 0
0 1 1 1 1 1 1 1 1 1 0 0 0 0 0 0 0 0 0 0 0 0 0 0 0 0 0 0 0 0 -0 -0 -0 0 0 0 0 0 0 0 0 0 0
0 0 1 1 1 1 1 1 1 1 1 0 0 0 0 0 0 0 0 0 0 0 0 0 0 0 0 0 0 0 0 0 0 0 0 0 0 0 0 0 0 0 0
1 1 2 1 2 1 1 2 2 1 1 1 0 0 0 0 0 0 1 0 0 0 0 0 0 0 0 0 0 0 0 0 0 0 0 0 0 0 0 0 0 0 0
0 0 0 3 2 1 1 2 1 1 1 1 0 0 0 0 0 0 1 0 0 0 0 0 0 0 0 0 0 0 0 0 0 0 0 0 0 0 0 0 0 0 0
0 1 1 2 5 1 3 2 1 1 1 1 1 1 0 0 0 0 0 0 0 0 0 0 0 0 0 0 -0 0 0 -0 0 0 0 0 0 0 0 0 0 0 0
0 0 0 2 4 2 4 3 1 1 1 0 1 1 0 0 1 0 0 0 0 0 0 0 0 0 0 0 0 -0 0 0 0 0 0 0 0 0 0 0 0 0 0
0 0 0 3 3 2 4 4 1 2 1 1 1 1 0 1 1 1 0 0 0 0 0 0 0 0 0 -0 -0 0 0 1 1 0 0 0 0 0 0 0 0 0 0
0 0 0 0 3 2 1 4 3 2 2 1 1 1 0 1 2 1 0 1 1 1 0 0 0 0 0 0 -0 1 1 1 1 0 0 0 0 0 0 0 0 0 0
0 0 0 0 0 2 2 2 3 3 3 2 2 2 1 1 1 1 1 1 1 1 0 0 0 0 0 -0 1 1 1 1 0 1 1 0 0 0 0 0 0 0 0
0 0 1 1 1 3 4 3 2 4 4 4 2 2 1 1 1 1 1 1 1 1 1 0 0 0 0 0 0 1 2 1 1 1 1 0 0 0 0 0 0 0 0
0 0 0 1 1 1 4 5 2 1 3 3 3 4 2 1 1 1 1 2 1 1 1 1 1 1 1 1 1 1 1 1 1 0 0 0 0 0 0 0 0 0 0
0 0 1 1 2 2 5 5 4 2 3 2 4 4 3 1 1 2 1 2 1 1 1 1 1 1 1 2 2 1 1 0 0 0 0 0 0 0 0 0 0 0 0
0 1 1 1 2 2 3 4 5 4 2 2 2 5 5 2 2 2 1 1 1 1 2 3 2 1 1 2 1 1 1 0 0 0 0 0 0 0 0 0 0 0 0
0 0 1 1 1 2 1 4 4 5 4 2 1 2 4 3 3 3 1 3 3 1 2 2 2 1 1 1 2 1 1 1 0 0 0 0 0 0 0 0 0 0 0
0 0 1 1 2 1 1 2 4 6 3 4 4 3 2 4 4 2 2 2 3 2 2 2 2 2 2 1 1 1 1 0 0 0 0 0 0 0 0 0 0 0 0
0 0 0 1 2 2 2 2 5 4 5 3 2 2 3 4 4 3 2 2 4 3 4 2 3 2 1 2 1 1 0 0 0 0 0 0 0 0 0 0 0 0 0
Wind_Speed_500mb
8 9 38 40 32 31 31 27 24 24 20 17 26 30 33 37 39 41 45 49 44 39 32 27 25 23 23 23 22 21 17 15 16 21 18 17 27 31 31 31 23 29 32
9 4 37 41 33 31 31 28 23 24 22 18 24 30 32 36 38 40 44 44 42 37 29 23 23 20 20 19 18 15 12 14 19 17 8 10 21 29 30 30 28 33 34
15 11 40 41 35 33 31 28 25 23 23 21 24 31 33 34 36 38 40 41 38 32 26 21 21 18 16 14 12 11 8 14 18 10 12 9 12 26 28 28 32 34 37
13 10 38 42 36 34 31 30 25 24 24 22 28 32 34 35 36 37 38 38 35 29 24 20 15 13 11 11 10 8 6 15 16 10 28 24 6 20 29 32 33 36 39
14 11 42 43 38 34 32 30 28 26 27 23 28 34 36 37 38 37 38 39 36 30 24 17 13 10 10 10 7 4 4 12 10 12 22 8 7 22 31 31 33 35 41
25 18 14 45 41 35 32 30 30 29 28 26 29 33 36 39 40 39 37 37 35 30 24 18 15 10 9 8 7 4 3 5 7 8 13 16 23 22 25 26 30 37 44
22 23 8 47 43 38 34 32 31 32 31 29 30 32 34 38 39 38 37 36 34 29 24 20 17 12 10 9 7 5 2 3 7 25 16 16 17 27 25 28 32 38 44
14 16 14 37 45 41 37 34 33 34 33 32 31 31 33 38 39 38 37 35 31 27 24 21 16 12 10 10 8 8 5 3 9 12 20 18 16 22 27 30 34 38 43
12 18 23 30 46 46 41 38 36 36 37 35 33 32 33 36 38 38 38 34 30 26 24 21 17 14 12 11 11 8 7 3 10 9 19 17 20 24 26 30 33 36 41
15 17 23 32 40 53 47 42 41 41 41 39 36 33 34 37 38 38 37 35 32 28 26 23 19 15 13 11 11 9 6 5 9 14 27 21 15 29 27 30 32 35 38
20 23 23 27 44 57 51 48 45 45 44 43 40 38 37 39 40 41 38 36 32 28 26 22 18 15 13 12 8 7 4 2 5 22 24 21 23 18 30 30 30 33 36
26 28 26 36 39 50 39 54 51 50 50 48 47 44 42 41 41 40 43 39 34 31 28 23 18 17 14 11 4 13 9 4 8 29 24 17 14 22 35 32 29 31 34
32 24 35 43 49 46 46 48 56 55 54 52 51 48 46 37 34 31 43 42 38 35 29 24 20 19 12 8 9 11 12 13 13 18 12 8 24 26 33 30 26 29 31
19 24 36 45 53 53 55 53 53 55 55 55 54 51 52 45 37 44 42 39 41 37 30 23 21 14 13 12 10 19 16 10 27 16 18 18 25 26 33 31 26 28 30
37 22 30 43 47 62 52 60 47 47 47 47 52 52 56 55 49 45 39 26 23 28 14 20 10 19 10 18 24 7 10 11 22 29 29 27 30 25 35 31 29 29 28
53 49 25 36 65 67 52 64 51 52 48 47 51 52 58 56 50 48 46 37 26 23 14 22 20 22 30 18 11 14 14 11 22 27 22 22 21 27 30 28 32 29 31
45 50 53 32 42 62 68 65 54 62 58 54 57 54 60 62 50 50 49 40 35 33 33 23 25 28 26 17 16 26 15 17 21 20 24 24 21 22 21 27 23 31 33
46 43 49 57 47 50 80 64 67 60 60 59 58 58 59 63 54 47 45 43 38 36 38 31 30 27 17 12 13 23 22 18 11 21 24 22 22 22 19 16 26 33 30
56 55 49 48 58 50 56 80 68 61 66 60 59 63 56 66 55 51 50 47 42 40 32 35 32 27 19 21 20 25 23 28 11 14 16 20 25 16 19 23 27 33 28
56 49 57 49 56 60 60 61 84 74 62 56 63 62 61 63 59 54 54 46 47 45 38 31 32 27 27 22 15 19 13 16 16 15 14 12 16 16 16 20 26 24 25
68 61 59 61 62 58 65 66 75 84 65 71 65 62 64 55 65 58 58 50 53 53 39 36 34 32 31 23 25 17 24 22 23 20 11 8 1 10 7 13 18 11 26
61 59 54 63 59 70 63 67 71 84 82 76 61 69 67 60 64 68 61 57 58 46 43 40 41 36 30 24 24 14 17 11 14 12 12 6 16 12 3 13 25 13 18
62 59 59 58 58 63 64 59 69 73 85 79 68 69 69 68 64 72 64 57 56 45 43 45 44 37 27 28 22 23 2 2 14 15 9 4 10 12 17 11 19 25 27
66 61 56 59 57 60 64 60 65 76 83 88 85 59 70 74 65 73 65 57 56 49 42 43 44 40 29 23 22 22 19 9 5 4 13 13 10 4 6 5 8 18 13
66 67 60 64 56 52 59 67 64 72 76 80 83 67 65 63 63 73 68 66 58 52 42 45 37 39 38 25 21 12 12 10 10 12 6 14 9 16 5 7 6 11 16
65 67 73 66 57 51 56 53 68 68 73 77 80 72 63 65 68 71 74 78 68 52 53 41 36 35 35 29 19 17 10 7 6 3 5 10 6 17 4 5 4 10 18
Wind_Direction_500mb
246 134 149 158 161 158 150 149 150 153 149 146 147 150 152 151 150 149 148 149 147 145 140 133 131 131 135 136 138 136 116 81 65 51 42 44 41 32 25 30 28 22 20
260 158 166 160 166 163 156 154 150 165 159 153 154 154 156 152 150 150 151 154 153 150 143 137 141 139 139 138 139 136 108 69 62 52 39 42 40 24 18 17 23 22 19
211 152 173 163 170 166 162 163 155 173 172 161 161 159 159 157 155 154 156 159 157 153 146 140 145 147 146 147 146 138 97 58 55 34 350 323 13 32 6 6 19 17 14
183 191 182 172 172 171 168 167 164 179 182 175 166 166 163 163 162 160 163 164 164 161 155 146 148 161 165 166 156 145 93 53 56 31 29 5 62 20 353 357 15 13 7
170 215 187 180 176 173 175 171 170 184 188 182 176 174 169 168 168 169 170 171 174 175 174 181 184 180 181 181 179 157 98 62 80 50 55 105 309 350 342 1 5 3 1
184 221 190 187 183 178 178 177 177 187 195 190 184 180 175 174 174 175 177 178 181 186 193 200 203 207 207 206 210 208 141 82 65 58 19 259 312 331 337 358 359 359 1
157 185 237 198 190 184 184 183 184 190 197 195 190 185 181 179 179 180 182 184 187 195 203 207 213 217 220 229 232 244 266 99 69 29 241 266 309 325 336 352 357 359 0
196 207 197 201 197 190 188 188 188 196 199 198 193 189 187 185 184 185 187 189 191 197 209 214 221 223 226 241 257 265 273 271 200 67 291 288 299 332 338 345 354 356 1
253 193 201 206 205 198 192 192 192 198 202 200 196 193 192 191 191 192 193 195 199 205 215 217 218 224 235 250 260 269 278 287 140 81 261 282 287 326 332 340 351 354 358
194 216 213 217 212 202 194 195 196 199 202 201 199 196 196 196 197 200 202 206 210 213 214 215 218 230 240 243 259 273 266 153 160 294 234 267 286 337 331 334 345 354 357
199 230 202 207 199 202 199 197 199 202 203 202 201 201 200 200 200 203 207 212 214 215 218 220 220 225 235 247 262 283 297 209 214 271 260 291 295 322 332 334 344 353 356
198 209 207 193 200 192 196 201 200 203 203 204 204 203 200 204 205 208 210 212 214 218 218 220 222 229 237 250 66 20 13 27 324 235 263 292 331 337 326 335 342 349 355
230 205 215 197 200 191 193 211 201 205 205 204 208 204 201 197 209 199 214 216 214 215 219 224 231 239 243 226 222 298 347 359 262 275 280 270 319 331 327 333 340 345 353
227 224 213 201 207 191 199 217 206 206 206 204 208 205 201 186 215 194 219 230 226 220 225 231 245 252 231 174 268 260 289 278 291 319 314 324 333 322 328 331 334 341 350
254 225 229 214 203 202 207 209 212 203 206 207 209 212 198 183 209 201 212 234 231 221 234 224 248 261 247 236 227 218 231 269 281 300 304 324 318 320 336 336 333 338 344
245 239 246 231 217 200 212 212 203 200 206 207 206 216 195 185 209 206 195 217 220 209 219 205 230 226 246 237 228 205 237 249 288 289 305 307 320 321 324 337 337 341 344
237 226 237 238 231 222 206 205 202 205 202 200 207 216 195 189 206 210 196 207 208 200 207 218 220 224 247 198 223 246 229 239 266 275 291 317 340 331 336 332 338 345 350
241 238 231 241 238 231 215 202 201 207 202 203 205 212 200 198 201 208 194 208 198 206 213 209 208 231 207 203 227 240 211 239 268 296 301 312 316 333 332 338 345 349 346
241 240 242 235 226 240 228 217 201 207 202 205 201 211 215 205 197 205 194 206 194 207 210 208 203 213 209 208 251 232 252 274 302 275 304 305 307 313 323 343 340 338 322
243 240 228 229 239 229 239 227 216 205 207 203 202 210 219 212 195 208 191 206 196 202 205 207 207 198 211 230 234 213 239 257 266 288 288 315 298 286 303 325 320 317 319
237 242 232 225 230 238 230 228 220 215 208 206 207 206 213 214 194 210 190 204 206 208 198 209 206 208 214 209 210 246 279 267 259 252 258 252 348 316 343 297 281 317 324
237 231 229 217 227 241 228 230 227 219 214 204 207 207 212 214 203 208 194 207 209 210 192 212 209 215 204 226 212 219 237 232 247 269 304 325 232 254 337 228 279 317 334
235 228 228 216 231 240 226 235 231 224 220 213 210 208 209 215 209 209 198 203 216 206 198 205 209 205 207 214 230 222 236 83 209 251 280 269 277 218 206 282 299 317 333
229 228 232 222 232 240 228 227 232 224 219 219 216 213 205 215 208 208 203 195 212 194 201 218 218 205 199 211 212 224 236 239 258 178 265 316 322 220 178 203 347 352 355
219 227 227 229 231 232 229 216 233 228 227 223 218 214 207 205 208 208 206 193 205 195 194 206 211 203 200 206 204 195 212 272 297 255 293 290 197 228 163 211 20 227 298
219 221 225 226 218 225 216 222 225 229 229 225 221 213 211 210 214 207 211 201 204 199 197 206 205 202 197 194 200 176 149 153 203 165 282 352 216 201 216 119 158 273 306
Wind_Speed_850mb
8 9 38 40 32 31 31 27 24 24 20 17 26 30 33 37 39 41 45 49 44 39 32 27 25 23 23 23 22 21 17 15 16 21 18 17 27 31 31 31 23 29 32
9 4 37 41 33 31 31 28 23 24 22 18 24 30 32 36 38 40 44 44 42 37 29 23 23 20 20 19 18 15 12 14 19 17 8 10 21 29 30 30 28 33 34
15 11 40 41 35 33 31 28 25 23 23 21 24 31 33 34 36 38 40 41 38 32 26 21 21 18 16 14 12 11 8 14 18 10 12 9 12 26 28 28 32 34 37
13 10 38 42 36 34 31 30 25 24 24 22 28 32 34 35 36 37 38 38 35 29 24 20 15 13 11 11 10 8 6 15 16 10 28 24 6 20 29 32 33 36 39
14 11 42 43 38 34 32 30 28 26 27 23 28 34 36 37 38 37 38 39 36 30 24 17 13 10 10 10 7 4 4 12 10 12 22 8 7 22 31 31 33 35 41
25 18 14 45 41 35 32 30 30 29 28 26 29 33 36 39 40 39 37 37 35 30 24 18 15 10 9 8 7 4 3 5 7 8 13 16 23 22 25 26 30 37 44
22 23 8 47 43 38 34 32 31 32 31 29 30 32 34 38 39 38 37 36 34 29 24 20 17 12 10 9 7 5 2 3 7 25 16 16 17 27 25 28 32 38 44
14 16 14 37 45 41 37 34 33 34 33 32 31 31 33 38 39 38 37 35 31 27 24 21 16 12 10 10 8 8 5 3 9 12 20 18 16 22 27 30 34 38 43
12 18 23 30 46 46 41 38 36 36 37 35 33 32 33 36 38 38 38 34 30 26 24 21 17 14 12 11 11 8 7 3 10 9 19 17 20 24 26 30 33 36 41
15 17 23 32 40 53 47 42 41 41 41 39 36 33 34 37 38 38 37 35 32 28 26 23 19 15 13 11 11 9 6 5 9 14 27 21 15 29 27 30 32 35 38
20 23 23 27 44 57 51 48 45 45 44 43 40 38 37 39 40 41 38 36 32 28 26 22 18 15 13 12 8 7 4 2 5 22 24 21 23 18 30 30 30 33 36
26 28 26 36 39 50 39 54 51 50 50 48 47 44 42 41 41 40 43 39 34 31 28 23 18 17 14 11 4 13 9 4 8 29 24 17 14 22 35 32 29 31 34
32 24 35 43 49 46 46 48 56 55 54 52 51 48 46 37 34 31 43 42 38 35 29 24 20 19 12 8 9 11 12 13 13 18 12 8 24 26 33 30 26 29 31
19 24 36 45 53 53 55 53 53 55 55 55 54 51 52 45 37 44 42 39 41 37 30 23 21 14 13 12 10 19 16 10 27 16 18 18 25 26 33 31 26 28 30
37 22 30 43 47 62 52 60 47 47 47 47 52 52 56 55 49 45 39 26 23 28 14 20 10 19 10 18 24 7 10 11 22 29 29 27 30 25 35 31 29 29 28
53 49 25 36 65 67 52 64 51 52 48 47 51 52 58 56 50 48 46 37 26 23 14 22 20 22 30 18 11 14 14 11 22 27 22 22 21 27 30 28 32 29 31
45 50 53 32 42 62 68 65 54 62 58 54 57 54 60 62 50 50 49 40 35 33 33 23 25 28 26 17 16 26 15 17 21 20 24 24 21 22 21 27 23 31 33
46 43 49 57 47 50 80 64 67 60 60 59 58 58 59 63 54 47 45 43 38 36 38 31 30 27 17 12 13 23 22 18 11 21 24 22 22 22 19 16 26 33 30
56 55 49 48 58 50 56 80 68 61 66 60 59 63 56 66 55 51 50 47 42 40 32 35 32 27 19 21 20 25 23 28 11 14 16 20 25 16 19 23 27 33 28
56 49 57 49 56 60 60 61 84 74 62 56 63 62 61 63 59 54 54 46 47 45 38 31 32 27 27 22 15 19 13 16 16 15 14 12 16 16 16 20 26 24 25
68 61 59 61 62 58 65 66 75 84 65 71 65 62 64 55 65 58 58 50 53 53 39 36 34 32 31 23 25 17 24 22 23 20 11 8 1 10 7 13 18 11 26
61 59 54 63 59 70 63 67 71 84 82 76 61 69 67 60 64 68 61 57 58 46 43 40 41 36 30 24 24 14 17 11 14 12 12 6 16 12 3 13 25 13 18
62 59 59 58 58 63 64 59 69 73 85 79 68 69 69 68 64 72 64 57 56 45 43 45 44 37 27 28 22 23 2 2 14 15 9 4 10 12 17 11 19 25 27
66 61 56 59 57 60 64 60 65 76 83 88 85 59 70 74 65 73 65 57 56 49 42 43 44 40 29 23 22 22 19 9 5 4 13 13 10 4 6 5 8 18 13
66 67 60 64 56 52 59 67 64 72 76 80 83 67 65 63 63 73 68 66 58 52 42 45 37 39 38 25 21 12 12 10 10 12 6 14 9 16 5 7 6 11 16
65 67 73 66 57 51 56 53 68 68 73 77 80 72 63 65 68 71 74 78 68 52 53 41 36 35 35 29 19 17 10 7 6 3 5 10 6 17 4 5 4 10 18
Wind_Direction_850mb
246 134 149 158 161 158 150 149 150 153 149 146 147 150 152 151 150 149 148 149 147 145 140 133 131 131 135 136 138 136 116 81 65 51 42 44 41 32 25 30 28 22 20
260 158 166 160 166 163 156 154 150 165 159 153 154 154 156 152 150 150 151 154 153 150 143 137 141 139 139 138 139 136 108 69 62 52 39 42 40 24 18 17 23 22 19
211 152 173 163 170 166 162 163 155 173 172 161 161 159 159 157 155 154 156 159 157 153 146 140 145 147 146 147 146 138 97 58 55 34 350 323 13 32 6 6 19 17 14
183 191 182 172 172 171 168 167 164 179 182 175 166 166 163 163 162 160 163 164 164 161 155 146 148 161 165 166 156 145 93 53 56 31 29 5 62 20 353 357 15 13 7
170 215 187 180 176 173 175 171 170 184 188 182 176 174 169 168 168 169 170 171 174 175 174 181 184 180 181 181 179 157 98 62 80 50 55 105 309 350 342 1 5 3 1
184 221 190 187 183 178 178 177 177 187 195 190 184 180 175 174 174 175 177 178 181 186 193 200 203 207 207 206 210 208 141 82 65 58 19 259 312 331 337 358 359 359 1
157 185 237 198 190 184 184 183 184 190 197 195 190 185 181 179 179 180 182 184 187 195 203 207 213 217 220 229 232 244 266 99 69 29 241 266 309 325 336 352 357 359 0
196 207 197 201 197 190 188 188 188 196 199 198 193 189 187 185 184 185 187 189 191 197 209 214 221 223 226 241 257 265 273 271 200 67 291 288 299 332 338 345 354 356 1
253 193 201 206 205 198 192 192 192 198 202 200 196 193 192 191 191 192 193 195 199 205 215 217 218 224 235 250 260 269 278 287 140 81 261 282 287 326 332 340 351 354 358
194 216 213 217 212 202 194 195 196 199 202 201 199 196 196 196 197 200 202 206 210 213 214 215 218 230 240 243 259 273 266 153 160 294 234 267 286 337 331 334 345 354 357
199 230 202 207 199 202 199 197 199 202 203 202 201 201 200 200 200 203 207 212 214 215 218 220 220 225 235 247 262 283 297 209 214 271 260 291 295 322 332 334 344 353 356
198 209 207 193 200 192 196 201 200 203 203 204 204 203 200 204 205 208 210 212 214 218 218 220 222 229 237 250 66 20 13 27 324 235 263 292 331 337 326 335 342 349 355
230 205 215 197 200 191 193 211 201 205 205 204 208 204 201 197 209 199 214 216 214 215 219 224 231 239 243 226 222 298 347 359 262 275 280 270 319 331 327 333 340 345 353
227 224 213 201 207 191 199 217 206 206 206 204 208 205 201 186 215 194 219 230 226 220 225 231 245 252 231 174 268 260 289 278 291 319 314 324 333 322 328 331 334 341 350
254 225 229 214 203 202 207 209 212 203 206 207 209 212 198 183 209 201 212 234 231 221 234 224 248 261 247 236 227 218 231 269 281 300 304 324 318 320 336 336 333 338 344
245 239 246 231 217 200 212 212 203 200 206 207 206 216 195 185 209 206 195 217 220 209 219 205 230 226 246 237 228 205 237 249 288 289 305 307 320 321 324 337 337 341 344
237 226 237 238 231 222 206 205 202 205 202 200 207 216 195 189 206 210 196 207 208 200 207 218 220 224 247 198 223 246 229 239 266 275 291 317 340 331 336 332 338 345 350
241 238 231 241 238 231 215 202 201 207 202 203 205 212 200 198 201 208 194 208 198 206 213 209 208 231 207 203 227 240 211 239 268 296 301 312 316 333 332 338 345 349 346
241 240 242 235 226 240 228 217 201 207 202 205 201 211 215 205 197 205 194 206 194 207 210 208 203 213 209 208 251 232 252 274 302 275 304 305 307 313 323 343 340 338 322
243 240 228 229 239 229 239 227 216 205 207 203 202 210 219 212 195 208 191 206 196 202 205 207 207 198 211 230 234 213 239 257 266 288 288 315 298 286 303 325 320 317 319
237 242 232 225 230 238 230 228 220 215 208 206 207 206 213 214 194 210 190 204 206 208 198 209 206 208 214 209 210 246 279 267 259 252 258 252 348 316 343 297 281 317 324
237 231 229 217 227 241 228 230 227 219 214 204 207 207 212 214 203 208 194 207 209 210 192 212 209 215 204 226 212 219 237 232 247 269 304 325 232 254 337 228 279 317 334
235 228 228 216 231 240 226 235 231 224 220 213 210 208 209 215 209 209 198 203 216 206 198 205 209 205 207 214 230 222 236 83 209 251 280 269 277 218 206 282 299 317 333
229 228 232 222 232 240 228 227 232 224 219 219 216 213 205 215 208 208 203 195 212 194 201 218 218 205 199 211 212 224 236 239 258 178 265 316 322 220 178 203 347 352 355
219 227 227 229 231 232 229 216 233 228 227 223 218 214 207 205 208 208 206 193 205 195 194 206 211 203 200 206 204 195 212 272 297 255 293 290 197 228 163 211 20 227 298
219 221 225 226 218 225 216 222 225 229 229 225 221 213 211 210 214 207 211 201 204 199 197 206 205 202 197 194 200 176 149 153 203 165 282 352 216 201 216 119 158 273 306